User: anonymous   Login
Location: Unspecified
(0.0000°N, 0.0000°E)
Time: 06:51:51
(UTC+00:00)
Language:

STARLINK-4525 - Orbit

View from above orbital plane
View from above orbital plane
View from above satellite
View from above satellite

Ground track
Ground track

The orbit is defined by the following mean orbital elements,

1 53401U          26145.25643080 +.00000000 +00000-0 +23026-4 0 00009
2 53401  53.2160 140.3937 0001290 103.4817 256.6319 15.08892151    07
Epoch (UTC): 25 May 2026 06:09:15
Eccentricity: 0.0001290
inclination: 53.2160°
perigee height: 539 km
apogee height: 540 km
right ascension of ascending node: 140.3937°
argument of perigee: 103.4817°
revolutions per day: 15.08892151
mean anomaly at epoch: 256.6319°

The dashed part of the orbit path shows where the satellite is in the earth's shadow,  

DLR